DW6206 Weather Reports


time (UTC)temp
C
wind
direction
speed
KPH
gust
KPH
rain 1hr
cm
rain 24hr
cm
rain mn
cm
humidity
%
barometer
mb
20190418204814 16 45 4.8 14.5 0.00 0.00 0.00 40 1023.1
20190418203803 16 67 4.8 14.5 0.00 0.00 0.00 40 1023.0
20190418202805 17 90 6.4 8.0 0.00 0.00 0.00 40 1023.0
20190418201738 17 67 3.2 9.7 0.00 0.00 0.00 39 1022.9
20190418200706 17 67 4.8 16.1 0.00 0.00 0.00 39 1022.8
20190418195634 17 112 3.2 16.1 0.00 0.00 0.00 39 1022.7
20190418194656 17 45 12.9 14.5 0.00 0.00 0.00 39 1022.7
20190418193710 17 90 6.4 14.5 0.00 0.00 0.00 38 1022.7
20190418192707 17 157 3.2 6.4 0.00 0.00 0.00 38 1022.5
20190418191708 18 67 4.8 17.7 0.00 0.00 0.00 37 1022.4
20190418190649 18 67 9.7 25.7 0.00 0.00 0.00 36 1022.5
20190418185635 18 67 4.8 25.7 0.00 0.00 0.00 36 1022.3
20190418184626 18 45 3.2 19.3 0.00 0.00 0.00 35 1022.0
20190418183555 18 67 19.3 19.3 0.00 0.00 0.00 34 1021.9
20190418182554 19 45 9.7 12.9 0.00 0.00 0.00 34 1021.8
20190418181551 19 90 12.9 12.9 0.00 0.00 0.00 33 1021.7
20190418180601 19 67 4.8 8.0 0.00 0.00 0.00 33 1021.5
20190418175525 20 45 6.4 9.7 0.00 0.00 0.00 32 1021.5
20190418174521 20 45 1.6 17.7 0.00 0.00 0.00 32 1021.4
20190418173519 20 67 6.4 17.7 0.00 0.00 0.00 31 1021.3
20190418172533 20 90 6.4 12.9 0.00 0.00 0.00 32 1021.1
20190418171524 20 45 4.8 17.7 0.00 0.00 0.00 32 1021.1
20190418170545 20 112 1.6 17.7 0.00 0.00 0.00 31 1021.3
20190418165540 20 337 4.8 16.1 0.00 0.00 0.00 31 1021.0
20190418164550 20 67 12.9 12.9 0.00 0.00 0.00 31 1020.9
20190418163521 21 90 3.2 12.9 0.00 0.00 0.00 30 1020.9
20190418162522 21 45 6.4 12.9 0.00 0.00 0.00 30 1021.0
20190418161525 21 67 6.4 17.7 0.00 0.00 0.00 31 1020.9
20190418160449 21 67 3.2 17.7 0.00 0.00 0.00 30 1020.9
20190418155438 21 112 4.8 12.9 0.00 0.00 0.00 30 1021.0
20190418154454 21 135 1.6 4.8 0.00 0.00 0.00 31 1021.0
20190418153438 21 135 1.6 11.3 0.00 0.00 0.00 31 1020.8
20190418152421 22 45 6.4 12.9 0.00 0.00 0.00 30 1020.7
20190418151349 22 45 12.9 25.7 0.00 0.00 0.00 30 1020.7
20190418150345 22 67 25.7 25.7 0.00 0.00 0.00 30 1020.8
20190418145345 22 337 6.4 20.9 0.00 0.00 0.00 30 1020.8
20190418144351 22 67 8.0 20.9 0.00 0.00 0.00 30 1020.8
20190418143407 22 292 1.6 9.7 0.00 0.00 0.00 30 1020.6
20190418142352 22 67 9.7 9.7 0.00 0.00 0.00 30 1020.6
20190418141352 22 135 0.0 0.0 0.00 0.00 0.00 31 1020.7
20190418140325 22 45 4.8 22.5 0.00 0.00 0.00 30 1020.7
20190418135316 22 45 22.5 22.5 0.00 0.00 0.00 30 1020.8
20190418134328 22 67 12.9 20.9 0.00 0.00 0.00 31 1020.8
20190418133306 22 90 11.3 11.3 0.00 0.00 0.00 30 1020.8
20190418132324 22 67 20.9 20.9 0.00 0.00 0.00 30 1020.9
20190418131251 22 67 4.8 20.9 0.00 0.00 0.00 30 1020.9
20190418130258 22 67 17.7 20.9 0.00 0.00 0.00 30 1021.3
20190418125319 22 67 11.3 16.1 0.00 0.00 0.00 29 1021.1
20190418124300 22 67 8.0 9.7 0.00 0.00 0.00 29 1021.3
20190418123307 22 67 9.7 12.9 0.00 0.00 0.00 30 1021.3
20190418122320 22 112 3.2 12.9 0.00 0.00 0.00 30 1021.4
20190418121258 22 90 12.9 12.9 0.00 0.00 0.00 30 1021.5
20190418120245 21 67 8.0 12.9 0.00 0.00 0.00 30 1021.5
20190418115304 21 90 9.7 22.5 0.00 0.00 0.00 32 1021.7
20190418114233 21 45 6.4 22.5 0.00 0.00 0.00 32 1021.8
20190418113237 21 67 14.5 20.9 0.00 0.00 0.00 33 1022.0
20190418112237 21 67 1.6 20.9 0.00 0.00 0.00 33 1022.2
20190418111231 21 112 4.8 14.5 0.00 0.00 0.00 37 1022.2
20190418110209 21 67 6.4 6.4 0.00 0.00 0.00 39 1022.3
20190418105155 20 90 9.7 14.5 0.00 0.00 0.00 39 1022.6
20190418104211 20 67 6.4 6.4 0.00 0.00 0.00 41 1022.7
20190418103142 20 67 0.0 0.0 0.00 0.00 0.00 41 1022.7
20190418102203 20 292 1.6 14.5 0.00 0.00 0.00 41 1022.8
20190418101225 20 67 6.4 9.7 0.00 0.00 0.00 41 1022.9
20190418100224 20 45 3.2 6.4 0.00 0.00 0.00 41 1022.9
20190418095147 20 45 3.2 19.3 0.00 0.00 0.00 41 1023.2
20190418094142 20 67 8.0 8.0 0.00 0.00 0.00 42 1023.3
20190418093150 19 292 0.0 0.0 0.00 0.00 0.00 43 1023.5
20190418092209 19 22 6.4 6.4 0.00 0.00 0.00 44 1023.6
20190418091153 18 67 8.0 9.7 0.00 0.00 0.00 45 1023.7
20190418090108 18 67 4.8 4.8 0.00 0.00 0.00 47 1024.2
20190418085046 17 67 6.4 12.9 0.00 0.00 0.00 47 1024.3
20190418084018 17 67 4.8 11.3 0.00 0.00 0.00 47 1024.6
20190418083017 17 67 4.8 9.7 0.00 0.00 0.00 49 1024.7
20190418081954 16 67 4.8 4.8 0.00 0.00 0.00 49 1024.5
20190418081008 16 315 3.2 3.2 0.00 0.00 0.00 49 1024.1
20190418075931 16 67 1.6 3.2 0.00 0.00 0.00 50 1023.6
20190418074939 16 67 1.6 11.3 0.00 0.00 0.00 51 1023.3
20190418073905 15 90 1.6 3.2 0.00 0.00 0.00 51 1022.6
20190418072908 15 67 0.0 4.8 0.00 0.00 0.00 52 1022.5
20190418071916 15 45 0.0 0.0 0.00 0.00 0.00 54 1022.7
20190418070854 14 67 3.2 4.8 0.00 0.00 0.00 55 1022.4
20190418065832 13 90 0.0 1.6 0.00 0.00 0.00 59 1022.5
20190418064800 12 0 0.0 3.2 0.00 0.00 0.00 60 1022.6
20190418063820 12 22 3.2 3.2 0.00 0.00 0.00 61 1022.3
20190418062814 11 67 0.0 0.0 0.00 0.00 0.00 62 1022.5
20190418061806 11 45 0.0 1.6 0.00 0.00 0.00 62 1022.3
20190418060808 11 90 0.0 0.0 0.00 0.00 0.00 62 1022.4
20190418055731 11 45 0.0 0.0 0.00 0.00 0.00 62 1022.2
20190418054729 11 90 0.0 0.0 0.00 0.00 0.00 62 1021.9
20190418053738 11 67 0.0 0.0 0.00 0.00 0.00 61 1021.9
20190418052733 11 45 0.0 0.0 0.00 0.00 0.00 61 1021.8
20190418051735 11 67 0.0 0.0 0.00 0.00 0.00 60 1021.8
20190418050718 11 67 0.0 0.0 0.00 0.00 0.00 60 1021.8
20190418045708 11 67 0.0 0.0 0.00 0.00 0.00 60 1021.6
20190418044730 11 337 0.0 0.0 0.00 0.00 0.00 59 1021.8
20190418043656 11 112 0.0 0.0 0.00 0.00 0.00 58 1021.7
20190418042708 11 67 1.6 1.6 0.00 0.00 0.00 58 1021.4
20190418041727 11 67 1.6 4.8 0.00 0.00 0.00 57 1021.6
20190418040701 11 22 1.6 1.6 0.00 0.00 0.00 57 1021.4
20190418035640 11 67 0.0 0.0 0.00 0.00 0.00 56 1021.3
20190418034623 11 67 0.0 0.0 0.00 0.00 0.00 56 1021.4
20190418033643 11 45 0.0 0.0 0.00 0.00 0.00 55 1021.3
20190418032614 12 67 1.6 3.2 0.00 0.00 0.00 55 1021.4
20190418031552 12 67 0.0 0.0 0.00 0.00 0.00 54 1021.3
20190418030526 12 90 0.0 0.0 0.00 0.00 0.00 54 1021.3
20190418025531 12 90 0.0 0.0 0.00 0.00 0.00 53 1021.2
20190418024531 12 67 1.6 4.8 0.00 0.00 0.00 53 1021.2
20190418023546 12 90 0.0 0.0 0.00 0.00 0.00 53 1021.4
20190418022557 12 67 0.0 0.0 0.00 0.00 0.00 52 1021.2
20190418021541 12 45 0.0 0.0 0.00 0.00 0.00 52 1021.0
20190418020601 12 67 0.0 0.0 0.00 0.00 0.00 52 1021.0
20190418015526 12 90 0.0 0.0 0.00 0.00 0.00 52 1020.9
20190418014532 12 90 0.0 0.0 0.00 0.00 0.00 51 1021.0
20190418013506 12 45 0.0 0.0 0.00 0.00 0.00 51 1020.8
20190418012448 12 337 0.0 0.0 0.00 0.00 0.00 51 1020.7
20190418011509 12 67 0.0 0.0 0.00 0.00 0.00 51 1020.9
20190418010517 12 67 0.0 0.0 0.00 0.00 0.00 51 1020.8
20190418005537 13 45 0.0 0.0 0.00 0.00 0.00 51 1020.7
20190418004504 13 45 1.6 1.6 0.00 0.00 0.00 51 1020.6
20190418003437 13 45 0.0 0.0 0.00 0.00 0.00 51 1020.7
20190418002418 13 45 0.0 0.0 0.00 0.00 0.00 51 1020.7
20190418001424 13 67 0.0 4.8 0.00 0.00 0.00 51 1020.6
20190418000444 13 22 0.0 0.0 0.00 0.00 0.00 51 1020.7
20190417235412 13 67 0.0 0.0 0.00 0.00 0.00 50 1020.9
20190417234340 13 315 0.0 0.0 0.00 0.00 0.00 49 1020.9
20190417233333 13 22 3.2 4.8 0.00 0.00 0.00 48 1020.7
20190417232330 14 292 0.0 0.0 0.00 0.00 0.00 48 1020.8
20190417231333 14 67 0.0 0.0 0.00 0.00 0.00 48 1020.8
20190417230325 14 67 0.0 0.0 0.00 0.00 0.00 49 1020.7
20190417225334 14 67 0.0 0.0 0.00 0.00 0.00 49 1020.6
20190417224337 14 90 0.0 1.6 0.00 0.00 0.00 50 1020.6
20190417223308 14 90 0.0 0.0 0.00 0.00 0.00 51 1020.6
20190417222244 14 67 1.6 1.6 0.00 0.00 0.00 51 1020.6
20190417221245 14 67 0.0 4.8 0.00 0.00 0.00 52 1020.6
20190417220220 14 67 1.6 4.8 0.00 0.00 0.00 52 1020.5
20190417215213 15 67 0.0 0.0 0.00 0.00 0.00 52 1020.2
20190417214232 15 90 0.0 6.4 0.00 0.00 0.00 51 1020.1
20190417213218 15 90 1.6 6.4 0.00 0.00 0.00 51 1020.0
20190417212159 15 67 0.0 0.0 0.00 0.00 0.00 51 1020.1
20190417211221 15 90 1.6 1.6 0.00 0.00 0.00 51 1020.0
20190417210215 15 45 0.0 0.0 0.00 0.00 0.00 52 1020.1